Regional Weather Roundup
Issued by NWS

Home | Current Version | Previous Version | Graphics & Text | Print | Product List | Glossary Off
Versions: 1 2 3 4 5 6 7 8 9 10 11 12 13 14 15 16 17 18 19 20 21 22 23 24 25 26 27 28 29 30 31 32 33 34 35 36 37 38 39 40 41 42 43 44 45 46 47 48 49 50

000
ASUS43 KDTX 052210
RWRMI
MICHIGAN HOURLY REGIONAL WEATHER ROUNDUP
NATIONAL WEATHER SERVICE DETROIT/PONTIAC MI
600 PM EDT THU MAY 05 2016

NOTE: "FAIR" INDICATES FEW OR NO CLOUDS BELOW 12,000 FEET WITH NO
SIGNIFICANT WEATHER AND/OR OBSTRUCTION TO VISIBILITY.

MIZ047>049-052>055-059>063-066>070-074>076-081>083-052300-
SOUTHEAST LOWER MICHIGAN

CITY           SKY/WX    TMP DP  RH WIND       PRES   REMARKS
ADRIAN         PTSUNNY   65  37  35 N22G30    29.86S
ALMA           PTSUNNY   66  38  36 MISG      29.89F
ANN ARBOR      MOSUNNY   65  38  36 N18G24    29.86S
BAD AXE        SUNNY     58  39  49 NE12      29.91S
CARO           SUNNY     63  37  38 N13       29.89F
DETROIT CITY   MOSUNNY   65  33  30 N20G33    29.85R
DETROIT        PTSUNNY   65  39  38 NW16G25   29.85S
FLINT          SUNNY     67  40  37 NE14      29.89F
GROSSE ILE     PTSUNNY   64  34  32 N17G29    29.82F
HILLSDALE      MOSUNNY   64  31  29 N16       29.88S
HOWELL         SUNNY     63  36  37 N12G18    29.88F

CITY           SKY/WX    TMP DP  RH WIND       PRES   REMARKS
JACKSON        MOSUNNY   64  38  38 N15G21    29.88F
LAMBERTVILLE   CLOUDY    65  40  38 N7G16     29.85S
LANSING        PTSUNNY   64  43  46 NE10      29.90S
LAPEER         FAIR      64  33  32 N14       29.88S
MASON          MOSUNNY   61  41  48 N8        29.89F
MONROE         CLOUDY    63  40  43 N17G23    29.84R
MT. CLEMENS    SUNNY     64  38  38 N21G26    29.85R
PONTIAC        MOSUNNY   63  36  36 N18G26    29.86S
PORT HOPE        N/A     50  44  80 N3        29.90F
PORT HURON     SUNNY     61  36  39 N13G24    29.86S
TRI CITIES     SUNNY     65  42  43 NE13      29.90S
MIDLAND        PTSUNNY   63  47  57 E10       29.89S
TROY           SUNNY     64  35  32 N14G26    29.87S
SAGINAW HB     SUNNY     63  37  39 NE10      29.89F
$$
MIZ043>046-050>051-056>058-064>065-071>073-077>080-052300-
SOUTHWEST LOWER MICHIGAN

CITY           SKY/WX    TMP DP  RH WIND       PRES   REMARKS
BATTLE CREEK   PTSUNNY   64  38  38 N13       29.90S
BENTON HARBOR  SUNNY     48  41  76 VRB7      29.97F
BIG RAPIDS     PTSUNNY   64  37  37 N7        29.90F
COLDWATER      PTSUNNY   63  44  48 NE13      29.89S
FREMONT        FAIR      64  36  35 NW13G18   29.92F
HOLLAND        SUNNY    N/A N/A N/A NW14      29.95F
GRAND RAPIDS   PTSUNNY   68  43  40 NW14      29.90F
IONIA          FAIR      65  38  36 N9        29.89S
KALAMAZOO      CLOUDY    64  43  46 N13       29.91S
LUDINGTON      SUNNY     55  37  51 NW9       29.97S
MARSHALL       CLOUDY    67  42  39 N7        29.89S
MOUNT PLEASANT MOSUNNY   68  40  37 N9        29.88F
MUSKEGON       SUNNY     61  41  47 NW10      29.94F
SOUTH HAVEN    SUNNY     50  42  74 NW10      29.96F
$$
MIZ016>042-052300-
NORTHERN LOWER MICHIGAN

CITY           SKY/WX    TMP DP  RH WIND       PRES   REMARKS
ALPENA         SUNNY     65  40  39 N8        29.90F
BEAVER ISLAND  SUNNY     51  36  57 W9        29.95F
BELLAIRE       SUNNY     58  38  47 W6        29.95S
CADILLAC       PTSUNNY   63  45  51 N8        29.91F
CHARLEVOIX     SUNNY     52  38  59 W10       29.98F
FRANKFORT      SUNNY     55  37  51 NW7       29.96S
GAYLORD        SUNNY     61  40  45 NW8       29.92S
GRAYLING       SUNNY     64  41  42 NW10G16   29.92S
HARBOR SPRINGS SUNNY     45  38  77 SW8       29.94F
HOUGHTON LAKE  MOSUNNY   65  39  38 VRB3      29.90F
MANISTEE       SUNNY     52  34  50 NW13      29.98R
OSCODA         SUNNY     58  40  52 NE15      29.90S
PELLSTON       SUNNY     62  35  36 NW10      29.93S
ROGERS CITY    SUNNY     57  42  55 N7        29.92F
TRAVERSE CITY  MOSUNNY   52  39  61 N7        29.94F
$$
MIZ007>008-015-052300-
EASTERN UPPER MICHIGAN

CITY           SKY/WX    TMP DP  RH WIND       PRES   REMARKS
KINROSS          N/A     54  37  54 NW12      29.92F
MACKINAC ISLAN SUNNY     54  39  58 W7        29.92F
NEWBERRY       SUNNY     59  37  42 N8        29.92S
S. S. MARIE    SUNNY     55  36  48 NW9       29.92F
MUNISING         N/A     45  37  73 N6        29.92F
$$
MIZ004>006-011>014-085-052300-
CENTRAL UPPER MICHIGAN

CITY           SKY/WX    TMP DP  RH WIND       PRES   REMARKS
MANISTIQUE     SUNNY     49  36  60 S10       29.93F
ESCANABA       SUNNY     55  37  50 SW13      29.93F
MENOMINEE      SUNNY     61  37  41 E10       29.94F
SAWYER-GWINN   SUNNY     64  34  32 NE10      29.91F
$$
MIZ001>003-009>011-084-052300-
WESTERN UPPER MICHIGAN

CITY           SKY/WX    TMP DP  RH WIND       PRES   REMARKS
IRON MOUNTAIN  SUNNY     70  24  17 SW7       29.88F
HOUGHTON       SUNNY     63  35  35 E10       29.86F
COPPER HARBOR    N/A     51  34  52 SW12G18   29.87F
IRONWOOD         N/A     72  39  30 SW10      29.83F
$$

ABBREVIATIONS USED IN REMARKS
   TC - TEMPERATURE IN CELSIUS
  WCI - WIND CHILL INDEX
   HX - HEAT INDEX
  VSB - VISIBILITY





USA.gov is the U.S. government's official web portal to all federal, state and local government web resources and services.